User: anonymous   Login
Location: Unspecified
(0.0000°N, 0.0000°E)
Time: 09:49:59
(UTC+00:00)
Language:

COMSATBw-1 - Orbit

View from above orbital plane
View from above orbital plane
View from above satellite
View from above satellite

Ground track
Ground track

The orbit data is extracted from the following two-line orbital elements,

1 35943U 09054B   17350.47757682 +.00000029 +00000-0 +00000-0 0  9995
2 35943 000.0619 082.6102 0002577 198.2707 039.3597 01.00271981030172
Epoch (UTC): 16 December 2017 11:27:42
Eccentricity: 0.0002577
inclination: 0.0619°
perigee height: 35775 km
apogee height: 35797 km
right ascension of ascending node: 82.6102°
argument of perigee: 198.2707°
revolutions per day: 1.00271981
mean anomaly at epoch: 39.3597°
orbit number at epoch: 3017

The dashed part of the orbit path shows where the satellite is in the earth's shadow,  

DLR